Home > Weather > Redlands > Past weeks

Flag for USA Past Weather in Redlands, California, USA — Yesterday and Last 2 Weeks

Now
83 °F

Clear.


Feels Like: 81 °F
Forecast: 71 / 105 °F
Wind: 3 mph from Northeast

Location: Norton Air Force Base / San Bern

Current Time: Jul 23, 2016 at 2:19:42 AM

Latest Report: Jul 23, 2016 at 1:55 AM


Visibility: 10 mi

Pressure: 29.85 "Hg

Humidity: 27%

Dew Point: 45 °F

Location of RedlandsLocation

Past Weather in Redlands — Graph

°F

Redlands Temperature Yesterday

Maximum temperature yesterday: 109 °F (at 1:50 PM)
Minimum temperature yesterday: 70 °F (at 6:14 AM)
Average temperature yesterday: 86 °F

High & Low Weather Summary for the Past Weeks

 TemperatureHumidityPressure
High109 °F (Jul 21, 4:59 PM)84% (Jul 12, 5:14 AM)30.05 "Hg (Jul 12, 5:14 AM)
Low59 °F (Jul 12, 7:00 AM)7% (Jul 20, 12:49 PM)29.81 "Hg (Jul 11, 4:50 PM)
Average78 °F46%29.96 "Hg
* Reported Jul 8 12:14 AM — Jul 23 12:55 AM, Redlands, Weather by CustomWeather, © 2016

Note: Actual official high and low records may vary slightly from our data, if they occured in-between our weather recording intervals... More about our weather records

Advertising

Redlands Weather History for the Previous 24 Hours

Scroll right to see more
 ConditionsComfort  
Time TempWeatherWind HumidityBarometerVisibility
12:55 AM
Sat, Jul 23
84 °FClear.No wind28%29.87 "Hg10 mi
12:34 AM84 °FClear.3 mph28%29.87 "Hg10 mi
12:14 AM85 °FClear.No wind25%29.88 "Hg10 mi
11:55 PM
Fri, Jul 22
85 °FClear.No wind26%29.88 "Hg10 mi
11:34 PM85 °FClear.No wind26%29.88 "Hg10 mi
11:14 PM87 °FClear.No wind24%29.88 "Hg10 mi
10:54 PM89 °FClear.3 mph22%29.88 "Hg10 mi
10:34 PM91 °FClear.No wind19%29.88 "Hg10 mi
10:14 PM91 °FClear.No wind18%29.89 "Hg10 mi
9:54 PM92 °FClear.No wind17%29.89 "Hg10 mi
9:34 PM92 °FClear.No wind17%29.89 "Hg10 mi
9:14 PM92 °FClear.3 mph17%29.88 "Hg10 mi
8:50 PM93 °FSunny.5 mph16%29.87 "Hg10 mi
7:48 PM97 °FSunny.8 mph17%29.86 "Hg10 mi
6:50 PM102 °FSunny.14 mph14%29.85 "Hg10 mi
3:50 PM109 °FSunny.8 mph8%29.86 "Hg10 mi
2:48 PM109 °FSunny.9 mph7%29.89 "Hg10 mi
1:50 PM109 °FSunny.7 mph8%29.91 "Hg10 mi
12:47 PM106 °FSunny.6 mph8%29.95 "Hg10 mi
11:48 AM102 °FSunny.6 mph10%29.96 "Hg10 mi
10:47 AM100 °FSunny.5 mph10%29.98 "Hg10 mi
9:46 AM95 °FSunny.No wind15%29.99 "Hg10 mi
8:45 AM91 °FSunny.No wind16%29.99 "Hg10 mi
7:00 AM75 °FSunny.No wind29%29.97 "Hg10 mi
6:34 AM72 °FClear.5 mph31%29.97 "Hg10 mi
6:14 AM70 °FClear.5 mph35%29.96 "Hg10 mi
5:54 AM72 °FClear.No wind34%29.96 "Hg10 mi
5:34 AM72 °FClear.No wind34%29.95 "Hg10 mi
5:14 AM74 °FClear.No wind35%29.94 "Hg10 mi
4:54 AM74 °FClear.No wind33%29.94 "Hg10 mi
4:34 AM75 °FClear.No wind31%29.94 "Hg10 mi
4:14 AM74 °FClear.3 mph34%29.94 "Hg10 mi
3:55 AM75 °FClear.No wind31%29.94 "Hg10 mi
3:34 AM75 °FClear.No wind33%29.94 "Hg10 mi
3:14 AM76 °FClear.No wind32%29.94 "Hg10 mi
2:55 AM76 °FClear.No wind31%29.94 "Hg10 mi
2:34 AM75 °FClear.No wind32%29.94 "Hg10 mi
2:14 AM76 °FClear.5 mph31%29.96 "Hg10 mi
Weather by CustomWeather, © 2016

See weather overviewHow to use our weather pages